Theta_e
333 332 331 330 329 330 331 331 329 328 328 329 328 327 323 322 316 317 317 321 322 325 327 324 327 330 332 332 332 331 330 327 327 329 330 331 332 320 316 317 322 322 319 319 318 321 323 324 324 325 326 325 326 325 323 321 321 320 323 322 324 318 316 316 316 319 319 320 321 320 319 319 319 318
333 332 331 330 329 331 332 331 331 331 330 329 330 329 328 325 320 318 317 320 324 324 327 327 326 329 330 332 332 332 331 323 327 329 330 332 333 318 314 315 318 318 315 314 313 317 320 322 325 327 326 325 324 323 322 321 321 323 323 322 324 319 317 318 318 319 321 319 317 317 317 318 317 318
332 331 331 333 332 332 331 331 331 331 331 330 330 328 327 325 324 321 320 316 323 328 324 327 330 329 330 331 331 331 331 327 327 331 332 332 324 317 318 314 315 315 313 312 313 319 320 319 322 325 326 325 326 324 324 324 323 324 323 321 318 318 318 317 318 320 320 318 317 316 316 316 316 317
330 329 328 328 329 331 330 329 330 330 329 329 329 327 325 324 325 324 321 319 319 326 327 328 329 331 331 331 331 331 332 330 322 333 333 333 321 327 327 313 314 313 312 312 316 321 322 321 322 325 325 325 325 324 324 324 323 321 319 316 315 316 315 316 318 320 318 317 316 314 314 314 314 315
329 328 328 328 330 331 329 329 329 329 328 328 328 327 326 324 324 323 321 318 319 323 331 331 328 331 332 330 330 329 330 330 328 327 333 333 332 329 329 326 313 311 311 310 311 313 315 318 323 324 324 326 323 319 319 318 315 318 317 314 313 312 314 314 314 316 316 315 314 313 312 312 312 313
329 329 327 328 329 330 330 329 328 329 329 327 327 326 325 323 323 324 322 320 319 318 324 327 329 331 332 328 330 328 328 328 328 329 331 331 330 329 330 328 324 310 311 309 310 312 312 312 316 317 315 315 314 313 313 313 312 315 312 309 311 314 315 315 311 310 313 313 312 311 311 312 312 312
329 328 328 328 330 330 329 329 329 329 328 328 327 327 326 324 323 323 324 322 319 320 321 326 326 327 329 327 328 329 330 329 329 329 329 328 327 328 330 329 326 309 309 308 309 311 310 311 312 313 312 311 310 310 310 310 309 310 308 306 309 311 311 310 307 308 313 313 312 311 312 312 312 312
327 327 327 327 329 329 328 328 329 330 328 327 327 326 326 325 325 324 324 324 322 321 319 322 324 326 326 327 329 331 330 328 327 329 329 328 326 326 327 329 329 314 308 308 309 310 310 310 310 310 311 311 309 309 309 309 308 307 306 306 307 307 306 305 304 305 309 312 313 312 312 311 311 311
328 327 327 327 328 328 327 327 328 330 328 328 327 326 327 326 326 325 324 324 324 321 319 320 324 327 329 330 331 329 325 324 326 328 326 325 325 325 327 329 329 312 308 308 309 309 309 309 309 310 310 309 308 308 308 308 307 306 306 306 306 305 304 303 303 304 306 306 308 312 312 310 310 309
327 327 326 327 328 327 327 327 327 329 328 329 328 327 326 326 326 324 324 324 323 322 322 322 321 324 324 325 324 325 325 324 323 323 325 326 325 323 322 322 319 316 314 314 313 309 309 309 309 309 309 308 307 307 307 307 307 306 305 305 305 305 304 303 303 303 304 304 304 306 309 309 310 309
321 321 322 324 325 326 327 328 328 328 327 327 327 328 327 326 325 324 323 323 323 323 322 323 324 323 324 324 321 323 326 325 324 320 319 320 324 323 321 319 320 317 316 314 311 314 316 314 313 308 308 308 307 307 306 306 306 305 304 304 304 304 303 303 303 303 303 303 302 303 303 307 310 310
320 319 320 321 322 323 323 324 326 328 326 326 325 327 326 325 325 324 323 323 322 321 321 320 319 321 321 324 326 325 324 322 321 322 321 318 317 320 321 320 318 317 318 317 316 312 312 311 310 307 307 307 307 306 306 307 307 306 304 304 303 304 303 303 303 303 303 303 303 302 301 302 303 310
317 317 317 317 318 320 313 307 308 309 311 320 323 325 326 325 324 323 322 321 321 321 320 319 321 320 320 321 321 320 319 319 317 319 322 319 319 319 318 319 319 317 316 316 316 316 317 316 316 314 314 312 309 309 310 309 307 305 303 303 303 303 303 303 303 303 303 303 303 302 301 301 301 303
313 314 315 316 316 315 309 303 299 298 299 302 305 307 311 317 323 323 322 321 321 320 319 319 318 316 317 318 319 319 320 322 321 320 320 318 317 318 317 315 316 318 317 315 314 314 317 315 313 314 314 313 314 314 315 316 312 306 302 303 303 303 303 303 303 303 303 302 302 301 300 299 299 298
310 312 313 313 315 315 313 308 299 297 297 297 297 297 298 300 306 314 321 321 322 320 320 321 319 318 317 318 320 321 321 321 319 318 319 317 315 314 312 310 310 316 318 316 313 311 315 315 313 313 314 314 316 316 317 306 304 303 302 302 302 302 302 302 302 301 301 301 300 300 299 299 299 298
309 310 311 312 312 313 312 311 309 304 299 297 297 297 296 295 295 295 301 310 319 321 320 319 318 319 318 319 320 320 320 318 318 318 318 316 315 313 313 311 308 313 318 314 311 309 312 316 314 312 312 313 315 315 307 302 302 301 301 301 301 301 301 300 300 300 300 299 299 298 298 298 298 296
307 308 309 309 309 309 311 312 310 309 308 302 300 300 300 299 297 294 294 295 304 314 319 319 318 318 318 318 318 320 320 318 316 316 315 315 315 315 314 312 310 312 319 315 310 307 311 314 311 309 311 313 313 309 303 301 300 300 300 300 300 299 299 299 299 298 298 297 297 297 297 296 295 295
305 305 306 306 306 306 306 307 310 309 309 307 306 304 303 302 300 298 297 297 297 301 305 307 306 303 306 313 318 318 318 319 316 315 314 315 314 314 314 313 313 315 320 314 309 305 306 310 307 303 304 307 307 305 300 300 300 300 299 299 299 298 298 298 298 297 297 297 297 296 296 295 295 294
305 306 306 306 305 305 304 303 304 309 308 308 307 306 304 303 301 300 300 300 302 302 302 301 300 301 302 307 311 316 318 317 315 316 316 316 315 312 312 313 314 314 316 316 313 303 302 306 302 300 301 302 301 302 299 298 298 298 298 297 297 297 297 297 297 297 297 296 296 295 295 294 294 294
304 306 306 306 305 304 303 299 295 302 308 307 306 305 305 305 304 303 300 296 297 300 301 301 300 299 297 296 299 301 309 314 314 313 313 313 312 312 310 308 311 309 312 314 309 303 301 303 299 298 300 301 300 300 300 298 298 298 297 297 297 297 296 296 296 296 296 296 295 295 294 294 293 293
302 302 304 304 304 303 302 295 294 296 302 306 305 304 304 304 304 304 305 300 297 296 296 296 296 296 296 296 295 295 295 300 310 314 311 310 311 308 306 305 307 306 307 307 310 303 300 300 298 297 298 298 297 298 298 299 297 297 297 297 297 296 296 296 296 296 295 295 295 294 294 294 294 294
303 300 298 302 302 301 300 293 294 295 304 306 305 304 303 302 301 302 304 305 303 299 298 297 296 296 297 297 297 296 297 297 304 314 309 310 311 307 306 304 305 305 307 306 310 304 299 299 299 297 298 298 298 298 298 298 298 297 297 296 296 296 296 296 296 295 295 295 295 295 294 295 295 297
302 301 298 296 295 297 295 292 293 294 302 304 304 304 303 301 299 300 303 302 302 303 302 302 302 301 301 303 303 302 298 299 302 305 309 312 308 304 303 304 305 303 304 306 310 301 298 300 301 301 298 294 296 299 298 298 299 298 298 298 297 296 296 295 295 295 295 294 294 295 295 295 296 298
301 300 299 296 291 291 291 291 292 292 295 303 303 303 302 301 300 303 302 302 303 303 302 302 302 302 302 302 302 302 303 303 303 301 303 307 309 306 305 304 303 302 302 305 309 303 301 303 301 305 302 295 292 295 297 297 298 298 298 297 296 295 295 295 294 294 294 294 294 295 295 295 296 298
299 298 298 297 292 290 290 291 291 292 293 296 302 301 301 301 302 301 303 302 300 302 302 302 302 302 302 302 301 301 301 302 302 302 301 301 303 304 303 301 300 300 301 302 301 305 300 302 300 302 300 298 295 294 295 296 297 297 297 297 296 296 296 296 295 295 294 294 294 294 294 295 296 298
298 298 297 296 292 290 290 290 291 291 292 294 302 299 293 292 294 304 303 304 303 302 302 302 301 301 301 301 301 301 301 301 301 302 301 300 300 301 301 302 301 300 300 304 300 306 302 300 301 299 298 295 294 295 293 293 295 296 297 297 296 296 296 296 296 296 298 299 299 297 296 295 295 296
297 298 297 296 292 290 290 290 290 290 292 295 296 291 292 293 294 299 304 303 302 301 301 300 299 300 300 300 300 300 300 301 302 302 302 302 301 300 300 300 302 302 304 306 307 307 305 301 303 301 297 296 293 293 292 290 290 295 294 295 296 296 297 297 296 297 298 298 297 294 294 293 293 293
297 296 296 294 290 290 290 290 290 290 290 293 290 292 292 295 297 304 303 302 302 301 300 300 299 299 300 300 300 300 301 301 302 301 302 301 301 301 300 300 300 301 304 305 306 306 304 301 301 300 298 296 293 290 287 289 290 291 290 293 294 296 297 297 297 297 298 300 299 300 299 299 299 298
295 291 290 290 290 290 291 291 292 293 291 290 290 291 293 298 302 302 301 301 301 299 299 299 300 301 301 302 302 304 304 305 304 304 303 303 302 302 301 300 300 300 301 303 305 305 304 302 300 300 300 298 293 291 290 287 288 288 290 290 290 294 296 297 298 297 299 300 299 299 299 299 299 299
290 290 291 291 291 292 293 298 297 297 296 291 291 292 295 301 300 300 301 300 299 298 299 299 300 301 303 303 304 305 305 304 303 304 303 303 301 302 302 301 300 301 301 301 303 305 304 304 302 300 297 295 293 290 289 288 287 289 291 291 292 294 296 297 298 298 299 298 298 298 299 300 299 299
296 295 295 294 292 292 291 292 292 294 294 297 298 299 299 299 299 299 299 300 300 300 299 299 300 301 303 304 303 302 302 302 303 305 302 302 302 301 301 300 299 299 300 302 302 303 304 303 302 299 295 294 293 292 292 291 288 288 290 293 293 291 294 297 298 298 298 297 298 298 299 299 299 298
298 298 294 295 298 298 298 298 299 298 298 297 296 298 298 298 298 297 296 297 301 301 300 300 301 302 302 302 302 301 301 301 302 304 302 302 301 301 301 298 297 298 298 299 300 301 299 302 301 300 298 296 292 292 293 292 290 291 292 294 295 295 296 296 296 297 299 298 298 297 298 299 298 298
298 298 297 297 295 296 294 295 296 296 296 296 297 297 297 298 298 299 299 298 298 299 299 298 299 299 301 301 302 300 300 300 301 303 302 303 302 301 300 298 298 297 296 296 297 298 299 298 299 298 298 297 296 295 292 290 292 293 293 294 296 294 294 296 297 296 298 297 297 296 296 297 298 297
295 294 294 294 294 294 294 293 293 294 294 295 295 296 292 294 296 296 296 298 298 297 297 299 297 298 299 299 300 300 300 300 300 301 298 302 302 300 299 298 297 297 297 297 297 297 297 297 297 297 296 296 297 296 296 293 292 294 295 296 295 295 296 296 297 299 299 298 297 296 296 296 297 297
293 292 292 293 293 293 294 292 293 294 293 293 294 294 294 295 294 293 295 296 295 295 295 295 296 297 298 297 299 299 298 299 299 300 301 301 301 299 299 298 297 297 298 297 298 299 299 298 297 295 295 295 294 295 295 298 295 294 296 296 297 296 296 298 298 297 298 297 298 295 296 295 295 296
292 293 293 292 293 293 293 292 293 294 294 294 294 294 292 293 293 293 293 294 297 295 295 295 294 295 296 296 296 296 297 296 298 299 298 298 298 298 298 298 298 298 299 298 298 300 300 299 297 295 292 292 292 290 292 294 295 298 295 293 296 296 297 297 297 298 298 296 298 296 291 292 294 295
292 293 293 293 294 294 293 294 294 294 295 294 294 294 294 293 294 295 295 293 295 293 294 295 295 295 295 295 295 294 295 295 295 297 297 299 299 298 296 296 296 298 298 299 299 300 300 299 299 298 295 292 292 291 291 294 291 293 300 297 295 297 297 297 297 296 297 297 296 296 294 293 294 295
292 293 293 293 293 293 294 294 294 293 294 294 294 294 294 294 295 295 296 296 294 294 294 295 294 294 294 294 294 294 295 295 295 295 295 296 296 296 296 296 296 298 298 299 299 300 300 299 299 297 294 292 291 290 290 292 293 293 292 297 293 293 297 295 293 294 295 297 296 296 297 294 294 297
294 293 294 293 294 294 294 293 293 294 295 294 294 294 293 294 294 294 293 293 294 293 294 293 293 293 293 294 294 294 294 293 293 293 294 295 296 295 295 295 295 297 298 297 299 299 299 298 297 298 297 295 292 293 293 291 291 293 291 290 296 294 293 295 293 295 295 293 294 297 297 296 293 288
293 293 294 294 294 294 294 295 294 294 295 294 294 295 294 292 293 293 293 292 292 291 292 292 291 292 292 293 293 294 293 294 293 294 293 293 293 294 294 294 295 295 295 295 295 298 297 297 298 298 298 297 296 294 294 294 293 293 292 293 288 293 294 294 293 292 292 295 296 293 292 294 293 295
293 293 294 294 295 295 294 294 295 295 295 295 295 293 295 294 293 292 292 292 291 292 292 292 292 292 292 292 292 292 292 292 293 293 293 293 292 292 292 291 294 294 294 293 295 295 295 297 294 284 293 296 295 298 293 291 289 290 291 291 291 289 288 290 296 295 291 294 293 291 290 290 291 291
293 293 293 294 294 294 295 294 295 294 295 294 294 294 294 293 292 291 293 291 292 291 292 292 292 292 292 293 293 292 291 291 291 291 292 292 293 292 291 292 292 292 292 291 292 293 296 298 295 297 300 294 294 292 290 290 289 290 290 292 291 290 290 289 287 290 296 294 291 289 289 289 290 288
293 292 292 292 293 294 294 294 294 294 294 294 293 293 293 293 294 293 293 292 292 292 292 292 292 292 293 293 293 292 292 291 291 291 290 291 291 291 291 292 292 292 292 291 293 293 293 297 298 296 294 294 294 293 291 290 290 290 289 291 291 292 292 290 290 288 288 286 288 291 293 291 288 286
293 293 292 293 292 293 293 294 293 293 293 291 292 291 292 292 292 292 292 292 292 292 292 292 292 291 291 292 292 292 292 292 291 291 291 291 291 291 291 291 290 291 292 292 292 292 293 292 294 295 293 293 293 292 291 290 289 289 290 290 291 290 290 292 292 290 289 288 287 288 287 287 289 289
293 293 293 293 292 291 291 292 293 292 291 290 290 289 289 289 290 291 291 291 292 292 291 291 291 291 291 291 291 291 291 290 291 291 291 291 291 291 290 290 291 291 291 291 291 291 292 292 293 293 293 292 292 292 291 290 290 289 289 289 289 290 291 291 290 290 290 291 288 285 287 287 288 288
Wind_Speed
8 7 8 7 7 7 7 7 8 8 8 9 8 10 11 10 12 7 9 9 8 10 13 9 11 13 12 10 11 10 11 12 13 13 13 13 12 15 16 16 16 15 14 14 14 17 17 14 13 12 11 13 13 14 16 15 14 12 11 14 10 11 12 12 12 12 15 14 11 9 10 11 10 10
7 7 6 6 7 7 5 7 6 7 9 9 9 8 8 9 11 10 10 7 8 7 10 10 9 14 13 11 10 12 12 13 15 13 14 13 14 17 17 16 16 15 15 14 14 17 16 15 16 16 14 16 17 17 16 15 14 12 15 13 10 14 14 13 11 13 9 12 11 10 8 10 10 11
5 7 9 8 8 8 7 6 6 7 7 8 7 8 8 8 10 10 8 8 4 5 8 11 10 12 15 13 13 12 11 11 15 13 13 15 13 16 15 16 15 15 15 15 14 15 15 17 17 13 12 17 15 14 15 16 13 16 15 10 13 15 15 14 12 9 12 12 12 11 10 8 8 10
6 8 9 9 9 8 7 8 7 7 7 8 6 8 7 8 9 9 9 7 5 5 6 8 10 12 13 14 13 13 10 10 17 13 13 14 11 11 10 15 16 16 16 15 15 17 17 17 16 17 15 16 16 16 17 15 15 15 12 13 15 15 14 14 12 12 12 12 11 10 10 9 8 8
7 8 9 9 9 8 8 7 7 7 8 8 8 7 6 7 7 8 9 10 6 2 2 5 7 10 11 11 13 12 10 10 13 13 13 12 8 10 10 11 16 17 17 16 16 16 16 16 16 17 17 18 17 18 17 16 15 13 13 15 15 15 14 13 13 12 11 10 9 8 9 9 8 8
6 7 9 9 9 8 8 8 8 6 6 8 7 7 6 7 7 8 8 9 7 7 2 4 5 6 10 8 10 11 13 12 11 14 11 9 11 12 12 10 10 17 17 17 16 16 16 16 16 16 16 17 17 18 15 16 15 14 15 15 15 15 15 14 13 12 11 10 9 9 9 9 9 9
8 8 7 7 7 5 7 7 7 7 7 6 7 7 6 7 7 7 8 6 7 7 5 5 4 5 7 8 11 12 10 9 11 14 12 9 10 11 10 10 8 13 16 17 16 16 16 16 16 15 15 15 14 14 16 16 14 15 15 15 15 15 14 14 13 12 12 12 11 10 10 9 9 9
7 7 7 7 7 7 7 6 5 5 6 5 5 6 6 6 7 6 7 6 4 4 4 5 6 6 8 9 10 8 8 10 8 10 9 10 10 11 12 12 11 12 17 16 15 15 15 15 15 16 17 17 16 15 15 15 15 15 15 15 14 14 14 14 13 13 12 12 11 11 10 10 10 10
8 8 7 7 8 7 7 6 5 3 6 6 6 7 6 5 5 6 6 6 4 4 6 5 4 5 5 5 5 7 9 9 10 8 9 10 10 8 8 9 8 13 18 16 15 15 15 15 17 18 18 17 16 16 15 15 15 15 15 15 14 14 14 13 13 12 12 11 10 11 11 9 10 10
10 10 10 9 8 8 7 7 6 4 5 6 6 7 6 5 6 5 6 7 7 6 6 6 5 6 6 5 5 9 10 10 8 7 8 6 6 8 7 5 5 6 7 7 8 11 13 15 18 20 20 17 17 16 15 15 15 15 15 14 14 14 13 13 13 12 12 11 11 10 10 9 9 10
10 10 9 10 9 8 8 7 6 6 6 4 5 5 4 5 5 5 4 5 6 5 5 5 5 5 6 7 7 8 10 10 10 12 9 7 5 6 5 7 7 7 7 8 11 11 11 13 11 11 15 19 19 17 15 14 15 14 14 14 14 13 13 13 13 12 12 11 11 10 9 10 9 9
9 10 10 10 11 11 10 9 8 6 5 5 6 5 6 4 4 4 3 4 4 4 5 5 5 5 5 6 4 7 9 8 7 8 7 9 9 6 5 6 7 8 7 8 8 6 6 9 8 10 13 16 18 17 14 14 14 14 14 14 13 13 13 13 13 12 11 10 10 9 8 8 8 7
10 10 9 8 11 12 17 17 14 13 12 7 6 4 3 3 4 3 3 3 4 5 5 4 3 4 4 4 5 6 8 10 10 9 8 6 5 6 6 5 6 7 6 6 8 7 8 8 9 9 8 6 8 10 12 11 13 14 13 13 13 13 13 13 12 11 10 9 8 8 7 6 6 5
11 11 10 11 19 14 18 18 18 18 18 17 12 9 8 5 3 4 5 5 5 6 7 8 8 9 8 7 8 9 9 5 4 7 8 8 8 7 6 4 3 6 7 7 6 6 6 7 7 8 9 8 8 6 6 7 9 11 13 13 13 12 12 11 11 10 8 8 7 7 7 6 6 6
12 12 13 12 14 14 12 12 17 17 18 18 18 19 17 13 8 5 3 4 5 4 5 3 4 6 7 7 6 7 6 6 8 8 8 8 8 9 9 6 4 4 7 5 6 6 7 9 8 7 8 9 8 6 6 11 10 12 11 11 10 10 9 9 9 8 8 8 7 7 6 6 6 5
12 13 13 11 10 12 14 11 10 14 16 17 19 19 19 18 17 14 8 5 3 2 4 3 4 3 5 6 5 4 5 5 6 7 8 8 10 8 7 6 6 5 5 7 8 7 4 5 7 7 8 8 6 4 9 10 9 10 9 8 7 7 7 7 8 8 7 7 6 6 5 4 4 4
14 12 11 11 11 10 16 12 12 12 12 15 18 19 19 21 20 17 18 14 8 5 5 2 1 2 4 1 4 5 6 6 8 7 7 8 8 7 7 5 5 7 5 6 7 7 5 5 6 8 7 6 6 6 7 7 10 9 9 8 8 8 8 8 8 8 7 7 7 7 7 6 5 5
14 14 12 12 12 12 11 11 12 12 13 14 15 17 15 13 16 18 20 17 17 13 8 8 7 8 7 5 3 3 1 6 7 9 9 8 9 9 8 8 8 6 4 7 8 5 4 4 7 8 7 6 7 7 8 7 8 9 9 9 9 10 10 10 10 10 10 10 9 9 9 8 8 8
15 15 14 15 14 12 11 11 12 12 14 14 13 16 18 17 16 16 16 14 12 11 10 9 7 6 6 5 7 5 4 5 4 2 1 4 7 8 9 10 8 6 5 5 5 5 3 4 7 7 6 7 9 8 11 12 11 12 11 11 12 12 12 12 12 12 12 12 12 12 12 13 13 12
15 15 14 13 13 13 13 16 18 14 12 13 15 16 16 16 15 15 15 16 16 14 12 11 10 9 10 11 9 10 7 4 5 7 8 8 7 9 9 7 5 5 4 5 6 6 4 4 8 6 7 8 9 9 8 12 13 14 14 13 13 13 13 13 13 13 13 13 14 14 15 15 15 15
16 16 15 13 12 14 14 18 19 15 13 15 16 16 15 15 16 14 11 14 18 19 20 20 21 21 20 20 20 18 17 12 6 6 7 6 7 10 9 6 5 4 3 5 4 6 6 4 6 8 9 9 8 8 8 8 12 16 16 14 14 15 14 14 14 14 14 15 15 16 16 16 16 16
13 17 26 20 14 14 14 18 19 18 14 15 16 15 15 16 16 14 10 9 12 17 18 20 21 21 19 19 20 21 19 18 12 4 6 2 4 8 6 6 5 5 5 3 2 6 5 7 7 10 7 9 8 7 6 7 11 15 14 15 16 15 15 15 15 14 15 15 15 14 14 14 13 10
11 13 16 22 18 15 15 19 19 18 15 15 15 14 15 17 18 13 11 12 12 12 14 15 15 15 17 15 14 16 21 20 16 11 7 3 8 9 8 6 7 6 3 2 5 6 6 8 4 6 6 5 5 6 6 6 9 10 9 9 11 15 16 15 14 14 13 13 13 13 12 12 10 8
12 12 12 15 18 18 19 19 20 19 17 16 14 13 14 15 15 11 12 11 11 11 13 12 13 13 13 13 14 14 14 16 17 13 10 7 8 10 8 5 5 4 3 2 4 7 5 6 7 3 3 8 4 3 6 7 7 7 7 8 10 12 14 14 13 14 13 12 12 11 10 10 9 8
11 11 11 11 16 17 19 19 19 20 18 16 16 15 14 11 7 9 12 13 14 14 14 13 14 12 12 12 11 12 12 11 10 11 12 14 11 9 7 7 8 8 6 4 4 5 5 7 7 4 5 6 7 8 6 7 7 7 8 9 10 7 7 7 6 7 10 11 11 11 10 10 10 9
11 11 11 10 12 18 20 19 19 19 18 17 13 12 12 11 11 11 11 11 13 12 12 12 13 13 13 12 11 11 12 11 12 12 12 12 12 11 9 8 7 7 6 4 6 6 8 5 6 7 5 7 7 7 9 8 7 6 8 8 8 7 7 7 6 6 4 4 5 6 8 11 10 9
10 9 10 10 13 17 18 20 20 19 17 15 12 14 13 11 9 11 10 10 11 13 13 14 14 13 12 11 12 11 11 11 11 11 11 12 12 12 11 12 10 9 6 5 4 5 6 6 4 6 6 8 11 8 7 7 7 7 9 8 8 6 5 4 5 5 5 6 6 11 12 13 14 15
10 10 10 10 14 16 16 18 19 19 17 13 16 15 14 12 12 11 11 11 11 10 11 12 14 13 12 12 12 11 10 10 11 11 11 12 12 13 11 11 12 10 9 8 6 5 6 8 7 7 9 10 10 9 10 6 7 6 7 7 6 4 4 4 4 4 5 6 5 5 6 6 6 8
9 10 12 15 16 15 15 15 15 15 16 17 17 16 15 13 11 12 12 12 12 13 13 11 10 10 9 8 7 6 7 7 7 8 9 11 12 12 13 12 12 12 10 9 8 7 7 8 9 8 7 8 10 6 8 9 7 6 5 7 6 3 2 3 4 5 4 5 5 5 6 5 5 5
13 13 13 14 15 15 13 12 11 11 10 12 13 13 13 10 10 10 10 11 13 13 12 10 10 9 8 8 7 7 7 8 8 7 7 8 11 12 12 13 13 13 13 12 11 9 9 8 9 9 9 8 10 9 9 12 9 7 4 5 6 4 2 2 3 4 4 6 5 6 6 6 5 4
10 11 10 10 10 10 12 13 11 13 12 11 11 10 10 10 9 9 9 9 10 10 10 11 10 9 9 8 9 10 10 10 9 8 7 8 9 11 12 13 12 12 13 13 13 12 11 11 9 12 12 11 10 9 7 8 10 8 5 5 5 5 3 3 4 5 5 6 6 6 5 4 3 3
8 9 9 11 10 10 10 11 11 11 10 10 10 10 10 10 9 10 10 11 10 9 10 10 9 9 9 10 9 9 10 9 9 8 9 9 10 11 11 12 12 11 11 12 12 13 13 10 10 9 11 11 12 9 8 8 8 7 7 5 3 3 3 4 5 5 4 6 5 5 4 4 4 4
8 9 10 10 10 10 9 11 11 11 10 10 10 11 9 9 9 9 9 10 9 8 9 10 9 10 10 10 9 10 10 10 9 8 9 9 10 12 12 13 11 11 11 11 11 11 12 13 13 13 12 11 10 9 10 9 6 7 8 6 4 3 3 3 4 5 5 4 3 5 4 3 4 4
9 9 9 9 9 10 10 9 8 8 9 8 8 9 10 8 9 9 9 9 8 8 7 8 8 9 8 10 9 9 9 10 10 9 9 9 9 10 12 12 12 11 11 11 10 10 11 12 13 12 11 10 9 8 6 9 9 8 6 6 5 5 4 5 4 4 4 3 4 5 6 5 4 3
9 8 9 8 8 8 9 7 7 7 7 7 6 8 6 8 8 7 8 7 6 5 6 6 6 6 8 8 8 9 8 9 10 9 9 9 9 11 12 11 11 11 11 10 10 10 9 10 11 12 11 9 8 7 8 4 9 7 6 5 5 5 3 2 5 5 5 6 5 4 6 6 5 4
8 8 8 8 8 8 8 7 7 7 7 7 7 6 6 6 6 6 7 6 6 5 6 7 6 7 7 8 8 8 8 7 9 8 6 8 8 8 10 10 10 10 10 9 9 8 8 8 8 10 10 8 8 7 5 4 3 6 6 4 5 4 4 3 4 5 6 6 6 5 6 7 7 6
8 6 7 8 8 8 8 8 8 8 8 8 8 8 7 7 6 7 5 3 7 5 5 6 6 6 6 7 7 7 8 8 8 7 8 10 9 9 6 7 8 9 9 8 8 7 7 7 6 7 7 6 6 7 6 4 1 5 3 5 4 4 4 4 4 4 4 5 6 9 9 5 6 6
7 8 8 8 8 8 8 8 8 6 8 8 8 7 8 8 7 7 7 8 7 5 5 6 6 6 6 6 8 8 8 8 8 8 7 7 7 8 7 6 6 7 7 6 6 6 5 6 6 5 4 4 5 6 6 4 3 4 2 3 1 2 3 2 2 3 3 4 5 4 5 4 5 6
7 7 7 7 7 7 8 7 6 7 8 7 7 7 6 8 8 7 6 5 6 5 5 5 5 5 5 5 6 7 8 7 8 8 8 8 8 7 7 6 5 6 6 4 5 4 4 5 5 5 4 3 3 4 4 5 4 3 3 6 3 3 2 3 2 3 5 4 5 4 3 4 9 9
7 7 6 6 6 6 6 6 7 7 7 7 7 7 6 6 6 5 5 4 5 4 5 4 5 5 5 5 5 6 6 6 6 6 7 7 7 6 6 6 6 5 4 4 4 5 4 4 4 5 5 5 4 2 2 3 3 3 3 4 9 6 0 3 3 3 3 5 5 4 4 4 4 4
6 6 6 5 6 6 6 6 6 6 6 6 7 7 7 7 7 5 5 5 4 5 5 5 4 4 5 4 5 7 7 7 5 5 4 5 5 5 4 5 5 5 5 5 6 5 6 4 4 5 6 1 1 3 2 3 3 3 3 3 6 7 7 8 3 2 3 3 3 3 4 4 3 4
5 6 5 5 5 5 5 5 5 6 6 6 5 4 6 4 4 4 5 5 5 5 5 5 4 4 4 4 5 6 7 7 7 6 5 5 5 5 5 6 6 5 5 5 4 4 4 2 1 2 0 0 1 1 1 2 2 3 3 3 3 6 8 7 8 9 3 3 3 3 2 2 2 3
5 5 5 5 5 4 4 5 5 5 5 5 3 3 3 4 4 5 5 5 5 5 5 4 4 4 4 4 4 5 5 6 6 6 6 6 6 6 5 5 4 3 3 3 3 2 2 2 1 1 1 1 0 1 1 2 1 3 3 3 3 3 3 7 8 8 8 10 9 4 2 0 3 2
4 4 4 4 4 4 4 4 4 4 4 3 3 3 3 3 4 4 4 4 4 4 4 4 4 4 3 3 4 4 4 4 5 5 5 5 6 6 5 4 4 3 3 3 2 2 2 1 1 0 0 0 0 0 1 1 1 1 2 3 3 3 3 3 3 4 4 6 7 7 6 5 3 2
3 3 3 4 3 2 3 3 4 4 3 2 2 3 3 3 3 3 3 3 3 3 4 4 4 4 3 4 4 4 3 4 4 4 4 5 4 4 5 5 4 3 4 4 3 2 2 2 1 0 0 1 0 0 0 0 1 1 2 3 4 3 3 3 4 4 4 4 6 7 5 5 4 2
Wind_Direction
278 273 260 256 259 257 250 241 238 231 227 229 227 222 224 219 235 226 217 213 203 200 204 192 193 192 190 197 200 193 195 180 169 189 199 201 195 181 186 186 184 181 183 178 168 175 182 186 191 186 177 164 155 152 158 162 166 169 179 189 175 141 141 146 165 171 174 170 148 142 130 119 120 116
276 267 253 240 250 244 236 243 231 233 239 233 225 220 218 220 231 233 223 219 199 190 196 204 187 194 192 194 195 202 202 167 174 191 197 201 205 170 184 183 185 180 181 179 171 175 179 174 191 191 181 170 162 160 162 166 169 174 184 190 158 144 144 152 168 189 156 120 126 126 123 122 129 135
273 275 273 263 256 250 248 241 236 234 234 234 231 232 216 217 229 236 231 229 202 174 188 206 204 189 195 193 195 198 200 170 181 194 198 205 191 160 181 184 184 179 180 180 177 173 171 174 191 192 191 183 162 161 165 169 173 180 185 177 159 154 155 158 176 164 141 139 134 136 136 135 136 145
281 277 279 281 276 270 258 254 243 237 232 237 231 226 214 216 222 229 234 235 221 195 187 200 208 192 196 196 192 194 190 172 180 201 200 201 164 166 179 186 184 178 179 182 182 178 175 181 179 190 189 194 178 167 170 170 175 180 175 161 163 159 160 161 160 157 153 149 145 146 154 157 159 159
281 280 287 287 280 274 264 252 247 241 236 235 232 220 211 215 214 220 234 238 230 209 258 201 202 199 190 193 197 191 186 172 188 204 205 195 159 176 194 185 185 178 180 183 186 182 178 180 183 187 188 190 182 174 174 172 175 173 160 162 163 160 161 160 159 158 155 152 151 148 161 165 168 168
297 293 286 282 281 273 270 265 256 245 239 233 232 223 203 212 208 207 219 225 208 190 147 217 195 187 194 186 189 194 192 184 172 191 196 190 185 190 194 188 179 181 179 184 186 185 178 179 185 186 190 185 181 173 174 170 171 164 162 164 164 164 163 161 157 151 151 152 151 155 160 163 164 168
333 322 318 301 292 286 272 266 260 251 245 241 235 233 208 213 207 200 212 213 199 171 163 178 173 176 193 196 189 201 194 186 178 187 192 179 181 191 189 188 177 175 181 181 185 185 179 180 183 182 178 171 175 178 172 168 167 163 164 167 167 166 164 160 155 152 156 155 158 163 166 163 169 173
326 324 320 312 305 297 291 283 273 256 249 241 243 242 224 212 211 202 208 215 201 175 136 187 187 193 191 215 204 196 184 182 170 195 179 175 173 176 181 187 193 172 181 181 183 184 183 180 176 176 174 173 174 176 173 169 166 165 166 169 169 166 163 160 157 158 157 160 166 170 169 167 175 180
339 335 333 324 318 311 301 292 270 239 242 244 236 241 231 216 206 203 205 213 200 181 192 174 194 200 201 199 186 169 179 170 174 179 178 172 173 164 171 189 183 157 177 176 182 185 183 180 178 176 173 171 174 172 173 169 165 165 168 168 167 164 161 160 160 159 159 160 166 176 176 175 184 186
2 352 347 337 336 323 306 300 301 279 253 237 233 237 234 225 216 202 201 207 198 197 200 172 163 195 190 182 182 177 176 171 162 165 181 160 151 147 158 145 124 135 161 175 189 194 186 185 184 179 169 170 169 169 171 170 166 165 168 168 166 164 162 162 163 163 162 165 169 178 173 177 190 192
16 11 6 2 353 334 319 311 305 306 307 281 253 234 229 222 223 214 196 200 199 188 196 183 179 172 190 181 184 184 180 180 178 173 163 161 152 153 149 157 154 150 164 189 186 181 189 178 178 179 177 168 165 168 168 168 166 165 167 167 166 164 164 166 169 170 168 170 174 178 175 179 193 202
15 14 10 7 5 1 360 345 328 324 315 322 307 278 243 219 213 217 212 195 196 186 185 183 194 196 181 195 166 164 170 169 176 181 162 165 164 156 153 150 148 157 165 160 172 164 158 163 174 166 169 166 163 163 164 167 165 165 165 166 166 166 168 171 175 177 175 174 176 180 174 180 192 214
15 15 11 11 3 16 24 21 28 27 21 348 327 326 271 239 222 210 196 213 211 207 196 187 182 177 184 175 160 170 178 184 189 174 168 160 131 135 132 137 146 148 147 152 153 153 161 150 162 161 163 153 152 154 161 162 164 163 163 165 164 168 171 175 177 178 177 175 174 176 177 176 189 204
17 15 16 16 13 33 44 37 41 45 47 47 49 34 13 342 286 232 211 199 205 206 213 209 196 195 200 186 185 184 193 175 115 148 169 158 148 128 120 107 129 154 143 144 136 139 156 148 137 152 154 141 144 139 167 167 167 159 162 163 166 169 174 174 175 173 170 164 163 165 167 174 183 195
21 22 24 24 27 31 42 47 44 45 49 53 51 49 47 41 31 353 310 225 200 203 207 203 198 207 203 201 197 200 171 162 169 175 174 158 146 155 157 159 124 176 164 145 126 127 139 143 140 148 146 144 152 154 173 124 143 152 160 162 164 167 166 165 160 155 152 152 153 158 168 176 184 193
24 26 31 31 28 35 39 38 44 50 49 48 50 50 48 43 42 45 40 351 324 231 214 186 199 202 216 203 193 191 169 162 165 171 169 165 164 161 166 153 163 169 175 139 125 109 115 141 130 123 123 134 146 92 105 132 140 141 143 143 138 137 139 135 134 135 139 144 147 150 155 160 159 167
31 30 33 35 32 24 23 33 43 49 50 48 47 46 47 44 39 37 35 32 24 345 5 333 238 349 323 218 211 203 191 163 169 169 168 169 170 164 153 136 123 148 165 121 103 106 115 108 99 94 72 94 99 77 106 121 125 121 124 123 123 122 120 120 118 118 115 113 112 108 107 103 100 88
36 36 35 34 32 26 21 19 36 48 53 52 51 51 47 42 33 33 33 29 28 33 45 41 42 5 0 354 356 34 107 175 179 178 180 171 171 165 146 124 121 127 155 141 118 89 56 72 91 73 61 60 62 60 57 82 98 113 111 113 111 108 106 103 103 103 103 101 99 97 94 92 88 87
39 39 40 43 43 30 24 20 21 52 55 58 58 57 56 52 48 43 35 30 32 36 42 45 41 17 359 360 15 15 34 67 59 56 273 198 142 108 92 84 98 92 50 109 108 95 63 53 76 65 61 66 66 65 54 60 78 83 88 92 99 101 102 101 101 101 100 99 97 94 92 88 84 85
43 44 43 44 40 31 31 16 19 33 55 58 59 58 56 54 53 53 48 45 47 51 53 53 55 49 39 37 40 37 27 36 83 90 93 83 111 112 100 105 98 80 46 36 94 100 75 59 86 65 58 66 68 61 65 61 74 82 84 87 91 96 96 97 98 98 98 97 96 95 93 92 90 84
46 40 35 38 40 39 35 21 21 20 53 63 62 58 55 54 52 44 35 36 42 46 50 51 50 47 42 40 37 34 36 32 12 106 102 127 131 113 104 91 89 71 43 14 76 103 94 62 90 81 55 66 63 64 69 73 77 85 86 89 91 91 93 95 97 97 98 98 99 102 102 99 95 90
52 43 37 34 41 43 38 30 31 21 44 61 60 57 57 53 50 40 22 28 37 40 45 46 48 45 40 40 41 38 36 35 29 31 102 115 75 77 87 115 112 106 70 11 31 78 97 112 106 101 100 70 57 68 72 86 89 83 86 88 91 93 94 96 98 102 104 105 108 107 105 103 98 89
48 47 41 34 32 41 38 38 36 33 46 59 54 56 60 58 53 39 30 33 34 32 41 37 39 40 38 39 41 39 38 37 39 37 26 9 91 90 83 91 108 105 62 357 351 102 130 131 133 126 117 74 67 58 76 82 89 95 96 86 80 86 90 89 90 92 91 93 93 95 99 102 99 94
50 46 45 36 27 35 40 41 40 39 39 59 57 58 60 62 58 48 46 36 46 45 48 44 42 44 40 41 40 39 38 38 41 38 33 30 74 92 94 76 59 71 83 38 17 106 127 139 143 28 97 132 123 95 75 74 76 77 81 85 91 88 88 85 80 80 86 87 88 91 96 99 105 102
52 48 44 46 27 38 43 44 44 45 42 49 62 58 62 55 46 56 60 48 46 53 49 48 47 42 40 40 39 41 44 45 46 50 47 47 45 61 79 83 75 76 57 20 350 112 131 152 140 106 72 69 115 114 82 81 68 69 75 84 90 80 84 82 86 80 77 79 83 85 84 89 92 107
55 51 47 45 30 42 47 46 45 45 46 42 53 43 42 38 39 57 60 57 58 55 54 52 50 46 44 40 37 37 39 37 38 42 48 50 53 51 48 54 80 84 71 54 58 86 112 135 139 117 111 111 98 104 114 89 78 75 80 74 73 73 73 83 82 83 94 104 89 88 86 80 72 68
56 54 52 43 35 48 50 50 47 44 44 51 44 40 38 35 44 60 56 55 58 60 60 58 56 52 50 48 45 43 43 38 38 43 46 50 54 57 52 50 53 66 69 77 77 100 104 112 111 120 115 117 117 103 81 104 100 75 71 68 70 67 59 78 93 98 98 95 99 97 85 79 77 67
54 55 51 45 43 47 49 52 53 49 45 46 41 39 34 38 40 49 53 52 50 51 51 54 55 52 50 53 55 54 53 52 52 51 51 54 58 61 59 54 50 45 48 52 49 62 92 106 92 97 120 126 123 123 117 89 99 96 97 83 73 65 46 68 91 96 103 117 117 104 103 102 94 89
61 56 52 50 47 44 46 48 51 49 42 40 39 34 31 37 46 47 49 48 52 53 50 49 51 54 50 50 53 52 53 60 64 61 61 63 65 65 64 58 51 45 39 38 45 52 78 97 106 106 104 109 107 94 108 118 115 110 104 114 105 88 53 65 100 113 108 97 95 96 104 104 102 92
56 49 53 51 52 50 43 50 49 50 43 41 43 40 35 44 40 39 44 48 52 55 52 48 49 49 49 51 46 46 49 52 49 52 57 60 66 64 62 62 54 48 44 40 46 57 74 88 92 93 83 80 99 106 111 114 104 107 91 93 112 101 59 103 107 106 96 94 82 94 98 103 94 96
61 54 53 60 58 60 55 58 57 55 41 38 38 41 41 43 39 38 38 41 48 47 51 50 51 50 52 54 51 49 48 48 43 41 52 60 58 67 69 72 67 59 55 57 60 66 80 82 83 100 100 96 88 95 100 100 108 109 103 116 128 126 129 118 121 110 109 109 110 106 114 100 87 82
62 64 58 55 54 49 53 53 55 51 49 45 37 35 37 40 41 40 40 46 47 45 47 51 51 52 53 53 53 55 54 53 47 43 51 58 62 67 72 70 67 66 62 60 64 63 64 67 76 81 99 112 114 111 94 88 106 118 124 127 94 84 114 136 128 115 113 126 117 116 118 127 121 125
68 65 58 54 51 50 48 47 48 46 45 46 43 36 27 34 35 37 37 43 39 31 45 47 43 48 51 54 56 61 60 53 47 48 59 54 67 72 71 71 71 71 73 72 68 67 71 70 66 79 84 85 90 105 113 109 110 126 134 133 119 100 111 120 133 124 117 91 112 135 129 126 136 132
70 60 58 53 51 50 51 47 43 38 37 38 39 39 30 30 29 28 35 38 37 31 37 41 46 44 47 55 55 59 61 63 60 49 50 59 63 70 72 74 76 77 81 85 90 92 89 88 89 86 82 75 71 68 90 120 129 134 131 134 137 138 121 133 146 152 147 142 150 153 157 147 129 137
62 62 63 58 56 55 54 48 42 40 41 35 38 39 37 34 28 27 35 23 25 32 42 43 42 43 50 53 53 60 57 63 65 59 57 60 64 71 73 77 78 81 83 89 97 103 104 105 105 102 100 99 88 71 35 74 131 129 136 143 152 157 159 142 146 165 170 156 179 171 161 160 155 149
67 64 66 62 58 56 55 49 43 43 43 40 41 39 42 39 33 31 35 7 27 34 39 43 42 41 47 53 51 55 56 58 61 59 57 60 62 66 72 77 83 84 85 89 96 101 103 114 119 118 122 126 125 126 127 12 41 153 149 161 168 174 176 182 196 202 193 184 169 167 182 182 175 160
72 68 67 67 64 61 61 55 49 47 46 45 43 42 43 44 39 40 29 16 43 38 35 40 41 35 40 52 57 54 53 55 59 54 58 60 65 71 77 76 76 81 86 89 94 95 88 91 107 119 122 126 126 131 133 152 51 314 235 159 176 180 181 185 199 204 204 196 188 184 199 195 185 166
70 69 67 66 65 63 58 57 53 51 48 44 46 46 47 48 47 41 33 42 35 35 35 39 37 38 37 37 49 53 55 58 59 57 54 55 61 63 64 69 73 76 83 90 86 85 78 80 86 92 106 106 114 125 140 152 164 179 342 302 193 164 182 194 199 193 181 185 187 187 215 207 187 180
66 68 69 68 65 64 64 58 54 53 50 47 44 47 47 48 45 44 41 40 37 40 42 37 37 32 33 40 52 49 50 48 53 54 53 51 53 61 63 65 66 67 73 78 85 83 81 76 82 91 95 99 100 107 130 154 148 130 63 3 320 191 194 195 181 161 158 151 149 148 121 75 64 67
63 62 62 66 65 65 64 62 60 58 56 51 49 44 50 47 47 44 42 38 44 46 48 46 36 36 43 27 46 66 64 59 55 54 52 54 51 49 55 58 63 68 71 68 66 67 64 66 57 48 52 48 44 61 71 87 97 112 121 70 18 358 212 181 162 167 165 151 146 161 148 153 157 160
65 67 62 60 65 62 61 59 58 58 58 57 59 49 52 52 50 46 41 38 35 43 50 45 37 37 39 29 35 49 56 58 57 56 62 66 58 49 27 40 61 54 65 68 60 60 49 37 33 307 304 67 116 144 156 158 146 143 131 101 58 29 16 358 345 189 140 150 182 171 170 172 165 171
69 68 63 57 59 59 58 57 54 54 53 52 52 55 56 57 54 39 56 43 39 38 47 46 42 44 45 38 46 54 52 49 50 48 41 39 59 61 48 46 52 51 55 62 57 55 50 64 148 228 219 162 214 212 136 95 118 120 106 121 123 83 49 25 17 22 46 168 174 158 137 148 178 195
68 71 69 64 58 58 58 56 54 53 51 47 45 40 52 51 48 45 51 47 47 46 47 48 45 46 44 46 45 47 54 54 52 52 46 45 40 45 48 46 40 45 57 72 75 62 65 88 128 178 191 236 200 283 103 83 86 119 144 150 142 139 108 69 53 55 55 46 36 24 4 289 191 215
76 78 74 67 68 61 60 58 57 54 54 51 43 40 39 53 56 44 42 46 46 47 44 51 50 48 43 45 55 56 50 51 54 53 56 52 47 40 39 40 41 31 27 29 38 63 68 75 82 207 207 84 67 235 90 159 171 142 158 133 140 157 162 152 132 111 97 67 39 20 15 351 340 317
78 79 81 76 70 67 60 63 64 62 59 53 52 49 49 51 51 56 49 40 45 43 47 44 48 50 49 51 52 59 57 53 53 56 52 52 50 51 45 32 28 30 30 14 358 25 32 22 100 151 181 90 275 15 39 319 331 157 149 140 170 184 184 180 190 192 199 199 73 41 27 12 5 49